Regional Weather Roundup
Issued by NWS

Home | Current Version | Previous Version | Text Only | Print | Product List | Glossary On
Versions: 1 2 3 4 5 6 7 8 9 10 11 12 13 14 15 16 17 18 19 20 21 22 23 24 25 26 27
000
ASUS45 KBOU 290307
RWRCO

WEATHER ROUNDUP FOR COLORADO
NATIONAL WEATHER SERVICE DENVER/BOULDER CO
900 PM MDT FRI APR 28 2017

NOTE: "FAIR" INDICATES FEW OR NO CLOUDS BELOW 12000 FEET WITH NO
SIGNIFICANT WEATHER AND/OR OBSTRUCTIONS TO VISIBILITY.

COZ001>005-013-030-031-290400-
...NORTHWEST COLORADO...

CITY           SKY/WX    TMP DP  RH WIND       PRES   REMARKS
CRAIG          CLOUDY    34  30  85 CALM      29.88R
HAYDEN         MOCLDY    34  25  69 E14       29.89R WCI  24
MEEKER         MOCLDY    32  30  92 CALM      29.87R
MOUNT WERNER   NOT AVBL
STEAMBOAT SPGS CLOUDY    31  29  92 W3        29.88R
WALDEN           N/A     27  16  63 E21G28    29.93R WCI  13
$$

COZ006>008-011-290400-
...WEST CENTRAL VALLEYS...

CITY           SKY/WX    TMP DP  RH WIND       PRES   REMARKS
GRAND JUNCTION FAIR      43  22  43 N12       29.81R
MONTROSE       MOCLDY    40  23  50 S14       29.81R
EAGLE          CLOUDY    40  23  50 E7        29.84R
RIFLE          FAIR      39  26  59 NW9       29.83R
DELTA          FAIR      46  18  33 E3        29.79R
NUCLA          FAIR      37  21  52 E3        29.84R
$$

COZ017>023-064>068-290400-
...SOUTHWEST COLORADO...

CITY           SKY/WX    TMP DP  RH WIND       PRES   REMARKS
DURANGO        FAIR      31  25  78 E7        29.75F WCI  24
CORTEZ         FAIR      35  23  61 NE7       29.79R WCI  29
PAGOSA SPRINGS FAIR      32  24  72 CALM      29.78R
TELLURIDE      LGT SNOW  23  22  96 W3        29.81S VSB 3/4
WOLF CREEK PAS FAIR      14  12  92 E5        29.84F WCI   6
$$

COZ009-010-012-014-032>034-037-058>063-290400-
...CENTRAL COLORADO...

CITY           SKY/WX    TMP DP  RH WIND       PRES   REMARKS
ASPEN          CLOUDY    33  22  63 CALM      29.81R
BUENA VISTA    LGT SNOW  29  27  92 W5        29.85R WCI  24
COPPER MTN     HVY SNOW  19  14  79 MISG      29.84S VSB 1/4
BERTHOUD PASS  SNOW       7  -4  61 SE33      29.87R VSB 1/2 WCI -18
COTTONWOOD PAS LGT SNOW  28  27  93 E8        29.84R WCI  20
GUNNISON       FAIR      34  19  54 S9        29.79R WCI  27
KREMMLING      SNOW      34  32  93 E12       29.90R VSB 1/2 WCI  25
LEADVILLE      HVY SNOW  20  18  92 N6        29.82R VSB 1/4 WCI  12
MONARCH PASS   CLOUDY    18  14  86 E35       29.87R WCI  -3
SALIDA         CLOUDY    32  31  95 CALM      29.93R
SUNLIGHT       FAIR      16  12  86 N6        29.87S WCI   7
WILKERSON PASS SNOW      18  14  86 E14G28    29.84F VSB 1/2 WCI   4
$$

COZ069>075-290400-
...SAN LUIS VALLEY/SANGRE DE CRISTO MOUNTAINS...

CITY           SKY/WX    TMP DP  RH WIND       PRES   REMARKS
ALAMOSA        FAIR      32  28  85 W8        29.78R WCI  25
LA VETA PASS   FOG       27  23  86 N15G21    29.93S VSB 1   WCI  15
SAGUACHE       FAIR      32  21  64 NW9       29.81R WCI  24
$$

COZ035-036-038>040-290400-
...NORTHERN COLORADO FRONT RANGE...

CITY           SKY/WX    TMP DP  RH WIND       PRES   REMARKS
DENVER INTL AP LGT SNOW  31  29  92 NE23G31   30.00R FOG     WCI  18
DMNS CITY PARK   N/A     31  31 100 NE16G28   30.03R WCI  20
AURORA         LGT SNOW  30  30  99 NE22G29   30.00R FOG     WCI  17
FRONT RANGE AP CLOUDY    32  32 100 MISG      29.99
ERIE MUNI ARPT LGT SNOW  32  31  98 NE15G21   30.05R WCI  22
BOULDER MUN AP LGT SNOW  32  32 100 N13       30.06R WCI  22
CENTENNIAL     SNOW      30  30 100 NE15G24   29.98R VSB 1/2 WCI  19
BROOMFIELD     LGT SNOW  30  30 100 N22       30.03R WCI  17
FORT COLLINS   LGT SNOW  31  30  96 NE16      30.08R FOG     WCI  20
LONGMONT       LGT SNOW  34  32  93 NE12      30.09R WCI  25
$$

COZ041-046-047-076>085-087-088-290400-
...PIKES PEAK/PALMER DIVIDE AND SOUTHERN FOOTHILLS...

CITY           SKY/WX    TMP DP  RH WIND       PRES   REMARKS
COLO. SPRINGS  LGT SNOW  35  31  85 NE21      29.89R FOG     WCI  24
A. F. ACADEMY  FLURRIES  32  31  95 NW14      29.89R WCI  22
SCHRIEVER AFB  LGT SNOW  31  31  99 NE18G29   29.89  VSB 5/8 WCI  20
ELLICOTT       HVY SNOW N/A N/A N/A NE28      29.86R
FALCON         LGT SNOW  31  29  92 N18G25    29.90R WCI  19
FORT CARSON    LGT SNOW  33  31  94 N14       29.88R FOG     WCI  23
LIMON          FLURRIES  30  30 100 NE22      29.94S WCI  17
MONUMENT HILL  LGT SNOW  28  28 100 NE14G23   29.93R WCI  17
TRINIDAD       CLOUDY    40  33  76 NW16      29.82R
$$

COZ042>045-048>051-090-091-290400-
...NORTHEAST COLORADO...

CITY           SKY/WX    TMP DP  RH WIND       PRES   REMARKS
GREELEY ARPT   MIX PCPN  32  31  96 NE13G18   30.09R WCI  22
AKRON          CLOUDY    32  29  88 NE18G28   30.02R WCI  20
BURLINGTON     NOT AVBL
WRAY           NOT AVBL
STERLING       CLOUDY    34  32  93 NE14      30.07R WCI  24
HOLYOKE        CLOUDY    37  34  87 NE13      30.07R
FORT MORGAN    CLOUDY    32  31  96 NE16      30.06R WCI  21
$$

COZ086-089-092>099-290400-
...SOUTHEAST COLORADO...

CITY           SKY/WX    TMP DP  RH WIND       PRES   REMARKS
PUEBLO         LGT SNOW  35  32  88 NE18      29.89R FOG     WCI  24
LA JUNTA       CLOUDY    41  35  79 NE26G35   29.85R
LAMAR          CLOUDY    39  36  89 NE23G33   29.86R
SPRINGFIELD      N/A     43  42  97 E12       29.83R
$$




USA.gov is the U.S. government's official web portal to all federal, state and local government web resources and services.